Location: Recife
(8.0585°S, 34.8848°W)
Time: 10:54:39
(UTC-03:00)

Courier 1B Rocket - Pass Details

Date: 22 April 2026
Orbit: 920 x 1201 km, 28.2° (Epoch: 13 May)

Event Time Altitude Azimuth Distance (km) Brightness Sun altitude
Rises 05:11:57 0° 245° (WSW) 3,563 - -3.2°
Exits shadow 05:12:41 - 241° (WSW) 3,371 7.2 -3.0°
Reaches altitude 10° 05:16:00 10° 220° (SW) 2,648 6.8 -2.2°
Maximum altitude 05:19:11 14° 189° (S) 2,398 6.9 -1.4°
Drops below altitude 10° 05:22:26 10° 159° (SSE) 2,719 7.5 -0.7°
Sets 05:26:43 0° 135° (SE) 3,728 8.6 0.4°
